Location: Curupao
(10.4996°N, 66.6442°W)
Time: 00:56:30
(UTC+00:00)

Okean 1 Rocket - Pass Details

Date: 23 May 2024
Orbit: 602 x 632 km, 82.5° (Epoch: 12 June)

Event Time Altitude Azimuth Distance (km) Brightness Sun altitude
Rises 08:15:18 0° 352° (N) 2,840 6.7 -25.0°
Reaches altitude 10° 08:17:30 10° 351° (N) 1,938 5.8 -24.6°
Enters shadow 08:20:57 55° 328° (NNW) 723 3.3 -23.8°
